Location: Breungeshain
(50.5000°N, 9.2000°E)
Time: 20:46:33
(UTC+00:00)

ISS - Pass Details

Date: 23 May 2017
Orbit: 401 x 408 km, 51.6° (Epoch: 25 June)

Event Time Altitude Azimuth Distance (km) Brightness Sun altitude
Rises 00:43:37 0° 279° (W) 2,337 -0.1 -16.6°
Reaches altitude 10° 00:45:43 10° 281° (W) 1,474 -1.1 -16.4°
Maximum altitude 00:49:01 74° 7° (N) 428 -3.7 -16.2°
Drops below altitude 10° 00:52:19 10° 93° (E) 1,467 -0.8 -16.0°
Sets 00:54:23 0° 95° (E) 2,325 0.3 -15.9°
